QPF
0.01 0.01 0.02 0.01 0.02 0.02 0.01 0.02 0.03 0.02 0.01 0.01 0.02 0.03 0.02 0.00 0.01 0.01 0.01 0.01 0.02 0.01 0.01 0.03 0.02 0.00 0.00 0.00 0.00 0.00 0.00 0.00 0.00 0.00 0.00 0.00 0.00 0.00 0.00 0.00 0.00 0.00 0.00 0.00
0.01 0.03 0.02 0.01 0.01 0.01 0.01 0.01 0.01 0.01 0.00 0.00 0.01 0.01 0.01 0.00 0.00 0.00 0.01 0.01 0.01 0.00 0.01 0.01 0.00 0.00 0.01 0.01 0.00 0.00 0.00 0.00 0.00 0.00 0.00 0.00 0.00 0.00 0.00 0.00 0.00 0.00 0.00 0.00
0.03 0.02 0.01 0.01 0.01 0.01 0.02 0.01 0.02 0.01 0.01 0.00 0.01 0.02 0.01 0.00 0.00 0.00 0.00 0.00 0.01 0.01 0.01 0.01 0.00 0.00 0.01 0.01 0.00 0.01 0.00 0.00 0.00 0.00 0.00 0.00 0.00 0.00 0.00 0.00 0.00 0.01 0.01 0.00
0.03 0.01 0.00 0.01 0.01 0.01 0.01 0.00 0.00 0.00 0.01 0.02 0.03 0.07 0.02 0.00 0.00 0.00 0.00 0.00 0.00 0.00 0.00 0.00 0.00 0.00 0.00 0.00 0.00 0.01 0.00 0.00 0.00 0.00 0.00 0.00 0.00 0.00 0.00 0.00 0.01 0.01 0.00 0.00
0.01 0.00 0.00 0.01 0.01 0.01 0.01 0.00 0.00 0.01 0.01 0.02 0.01 0.03 0.03 0.01 0.03 0.01 0.00 0.00 0.00 0.00 0.00 0.00 0.00 0.00 0.00 0.00 0.00 0.00 0.00 0.00 0.00 0.00 0.00 0.00 0.00 0.00 0.00 0.00 0.00 0.01 0.00 0.00
0.00 0.00 0.01 0.01 0.00 0.00 0.01 0.01 0.01 0.01 0.02 0.03 0.02 0.02 0.03 0.02 0.01 0.00 0.00 0.00 0.00 0.00 0.00 0.00 0.00 0.00 0.00 0.00 0.00 0.00 0.00 0.00 0.00 0.00 0.00 0.00 0.00 0.00 0.00 0.00 0.00 0.00 0.00 0.00
0.01 0.00 0.00 0.00 0.00 0.00 0.01 0.03 0.03 0.04 0.04 0.03 0.02 0.02 0.02 0.01 0.01 0.00 0.00 0.00 0.00 0.00 0.00 0.00 0.00 0.00 0.00 0.00 0.00 0.00 0.00 0.00 0.00 0.00 0.00 0.00 0.00 0.00 0.00 0.00 0.00 0.00 0.00 0.00
0.02 0.02 0.01 0.01 0.01 0.02 0.03 0.04 0.04 0.04 0.04 0.02 0.02 0.01 0.00 0.00 0.00 0.00 0.00 0.00 0.00 0.00 0.00 0.00 0.00 0.00 0.00 0.00 0.00 0.00 0.00 0.00 0.00 0.00 0.00 0.00 0.00 0.00 0.00 0.00 0.00 0.00 0.00 0.01
0.03 0.03 0.01 0.00 0.00 0.00 0.01 0.02 0.02 0.02 0.02 0.02 0.01 0.00 0.00 0.00 0.00 0.00 0.00 0.00 0.00 0.00 0.00 0.00 0.00 0.00 0.00 0.00 0.00 0.00 0.00 0.00 0.00 0.00 0.00 0.00 0.00 0.00 0.00 0.00 0.00 0.00 0.00 0.01
0.01 0.02 0.01 0.00 0.01 0.00 0.01 0.01 0.02 0.02 0.02 0.01 0.00 0.00 0.00 0.00 0.00 0.00 0.00 0.00 0.00 0.00 0.00 0.00 0.00 0.00 0.00 0.00 0.00 0.00 0.00 0.00 0.00 0.00 0.00 0.00 0.00 0.00 0.00 0.00 0.00 0.00 0.01 0.00
0.00 0.01 0.01 0.00 0.01 0.00 0.00 0.01 0.02 0.01 0.01 0.01 0.01 0.00 0.00 0.00 0.00 0.00 0.00 0.00 0.00 0.00 0.00 0.00 0.00 0.00 0.00 0.00 0.00 0.00 0.00 0.00 0.00 0.00 0.00 0.00 0.00 0.00 0.00 0.00 0.00 0.00 0.01 0.01
0.00 0.01 0.01 0.00 0.00 0.00 0.00 0.00 0.01 0.01 0.00 0.00 0.01 0.00 0.00 0.00 0.00 0.00 0.00 0.00 0.00 0.00 0.00 0.00 0.00 0.00 0.00 0.00 0.00 0.00 0.00 0.00 0.00 0.00 0.00 0.00 0.00 0.00 0.00 0.00 0.00 0.00 0.01 0.01
0.00 0.00 0.01 0.00 0.00 0.00 0.00 0.00 0.00 0.00 0.00 0.01 0.00 0.00 0.00 0.00 0.00 0.00 0.00 0.00 0.00 0.00 0.00 0.00 0.00 0.00 0.00 0.00 0.00 0.00 0.00 0.00 0.00 0.00 0.00 0.00 0.00 0.00 0.00 0.00 0.00 0.00 0.01 0.01
0.00 0.00 0.00 0.00 0.00 0.00 0.00 0.00 0.00 0.00 0.00 0.00 0.00 0.00 0.00 0.00 0.00 0.00 0.00 0.00 0.00 0.00 0.00 0.00 0.00 0.00 0.00 0.00 0.00 0.00 0.00 0.00 0.00 0.00 0.00 0.00 0.00 0.00 0.00 0.00 0.00 0.01 0.01 0.01
0.00 0.00 0.00 0.00 0.00 0.00 0.00 0.00 0.00 0.00 0.00 0.00 0.00 0.00 0.00 0.00 0.00 0.00 0.00 0.00 0.00 0.00 0.00 0.00 0.00 0.00 0.00 0.00 0.00 0.00 0.00 0.00 0.00 0.00 0.00 0.00 0.00 0.00 0.00 0.00 0.00 0.00 0.01 0.01
0.00 0.00 0.00 0.00 0.00 0.00 0.00 0.00 0.00 0.00 0.00 0.00 0.00 0.00 0.00 0.00 0.00 0.00 0.00 0.00 0.00 0.00 0.00 0.00 0.00 0.00 0.00 0.00 0.00 0.00 0.00 0.00 0.00 0.00 0.00 0.00 0.00 0.00 0.00 0.00 0.00 0.00 0.01 0.01
0.00 0.00 0.00 0.00 0.00 0.00 0.00 0.00 0.00 0.00 0.00 0.00 0.00 0.00 0.00 0.00 0.00 0.00 0.00 0.00 0.00 0.00 0.00 0.00 0.00 0.00 0.00 0.00 0.00 0.00 0.00 0.00 0.00 0.00 0.00 0.00 0.00 0.00 0.00 0.00 0.00 0.00 0.00 0.01
0.00 0.00 0.00 0.00 0.00 0.00 0.00 0.00 0.00 0.00 0.00 0.00 0.00 0.00 0.00 0.00 0.00 0.00 0.00 0.00 0.00 0.00 0.00 0.00 0.00 0.00 0.00 0.00 0.00 0.00 0.00 0.00 0.00 0.00 0.00 0.00 0.00 0.00 0.00 0.00 0.00 0.00 0.00 0.00
0.00 0.00 0.00 0.00 0.00 0.00 0.00 0.00 0.00 0.00 0.00 0.00 0.00 0.00 0.00 0.00 0.00 0.00 0.00 0.00 0.00 0.00 0.00 0.00 0.00 0.00 0.00 0.00 0.00 0.00 0.00 0.00 0.00 0.00 0.00 0.00 0.00 0.00 0.00 0.00 0.00 0.00 0.00 0.00
0.00 0.00 0.00 0.00 0.00 0.00 0.00 0.00 0.00 0.00 0.00 0.00 0.00 0.00 0.00 0.00 0.00 0.00 0.00 0.00 0.00 0.00 0.00 0.00 0.00 0.00 0.00 0.00 0.00 0.00 0.00 0.00 0.00 0.00 0.00 0.00 0.00 0.00 0.00 0.00 0.00 0.00 0.00 0.00
0.00 0.00 0.00 0.00 0.00 0.00 0.00 0.00 0.00 0.00 0.00 0.00 0.00 0.00 0.00 0.00 0.00 0.00 0.00 0.00 0.00 0.00 0.00 0.00 0.00 0.00 0.00 0.00 0.00 0.00 0.00 0.00 0.00 0.00 0.00 0.00 0.00 0.00 0.00 0.00 0.00 0.00 0.00 0.00
0.00 0.00 0.00 0.00 0.00 0.00 0.00 0.00 0.00 0.00 0.00 0.00 0.00 0.00 0.00 0.00 0.00 0.00 0.00 0.00 0.00 0.00 0.00 0.00 0.00 0.00 0.00 0.00 0.00 0.00 0.00 0.00 0.00 0.00 0.00 0.00 0.00 0.00 0.00 0.00 0.00 0.00 0.00 0.01
0.00 0.00 0.00 0.00 0.00 0.00 0.00 0.00 0.00 0.00 0.00 0.00 0.00 0.00 0.00 0.00 0.00 0.00 0.00 0.00 0.00 0.00 0.00 0.00 0.00 0.00 0.00 0.00 0.00 0.00 0.00 0.00 0.00 0.00 0.00 0.00 0.00 0.00 0.00 0.00 0.00 0.00 0.00 0.01
0.00 0.00 0.00 0.00 0.00 0.00 0.00 0.00 0.00 0.00 0.00 0.00 0.00 0.00 0.00 0.00 0.00 0.00 0.00 0.00 0.00 0.00 0.00 0.00 0.00 0.00 0.00 0.00 0.00 0.00 0.00 0.00 0.00 0.00 0.00 0.00 0.00 0.00 0.00 0.00 0.00 0.00 0.00 0.00
0.00 0.00 0.00 0.00 0.00 0.00 0.00 0.00 0.00 0.00 0.00 0.00 0.00 0.00 0.00 0.00 0.00 0.00 0.00 0.00 0.00 0.00 0.00 0.00 0.00 0.00 0.00 0.00 0.00 0.00 0.00 0.00 0.00 0.00 0.00 0.00 0.00 0.00 0.00 0.00 0.00 0.00 0.00 0.00
0.00 0.00 0.00 0.00 0.00 0.00 0.00 0.00 0.00 0.00 0.00 0.00 0.00 0.00 0.00 0.00 0.00 0.00 0.00 0.00 0.00 0.00 0.00 0.00 0.00 0.00 0.00 0.00 0.00 0.00 0.00 0.00 0.00 0.00 0.00 0.00 0.00 0.00 0.00 0.00 0.00 0.00 0.00 0.00
MSLP
1010.66 1011.16 1011.58 1011.89 1012.09 1012.19 1012.22 1012.21 1012.19 1012.19 1012.20 1012.23 1012.25 1012.25 1012.20 1012.10 1011.94 1011.74 1011.50 1011.26 1011.03 1010.82 1010.64 1010.51 1010.42 1010.36 1010.35 1010.38 1010.47 1010.64 1010.89 1011.22 1011.62 1012.06 1012.50 1012.91 1013.24 1013.46 1013.55 1013.53 1013.42 1013.27 1013.13 1013.03
1011.02 1011.40 1011.70 1011.91 1012.03 1012.10 1012.16 1012.23 1012.34 1012.49 1012.67 1012.84 1012.99 1013.08 1013.08 1012.98 1012.80 1012.56 1012.27 1011.97 1011.68 1011.42 1011.19 1010.99 1010.82 1010.68 1010.56 1010.50 1010.50 1010.59 1010.79 1011.09 1011.50 1011.97 1012.45 1012.91 1013.28 1013.52 1013.62 1013.59 1013.46 1013.29 1013.13 1013.02
1011.24 1011.51 1011.70 1011.81 1011.88 1011.94 1012.04 1012.22 1012.47 1012.80 1013.16 1013.52 1013.82 1014.03 1014.11 1014.06 1013.89 1013.63 1013.31 1012.97 1012.64 1012.33 1012.04 1011.78 1011.52 1011.28 1011.06 1010.88 1010.77 1010.75 1010.87 1011.11 1011.47 1011.92 1012.40 1012.86 1013.23 1013.48 1013.58 1013.55 1013.41 1013.23 1013.06 1012.94
1011.36 1011.52 1011.60 1011.64 1011.67 1011.75 1011.92 1012.21 1012.62 1013.13 1013.69 1014.24 1014.71 1015.05 1015.24 1015.25 1015.10 1014.85 1014.52 1014.16 1013.80 1013.45 1013.11 1012.79 1012.46 1012.14 1011.82 1011.52 1011.29 1011.16 1011.16 1011.30 1011.57 1011.95 1012.37 1012.79 1013.13 1013.36 1013.44 1013.40 1013.26 1013.07 1012.90 1012.79
1011.40 1011.46 1011.46 1011.45 1011.46 1011.57 1011.82 1012.23 1012.80 1013.48 1014.23 1014.95 1015.58 1016.06 1016.34 1016.42 1016.31 1016.07 1015.74 1015.37 1014.99 1014.63 1014.27 1013.91 1013.54 1013.16 1012.76 1012.38 1012.04 1011.79 1011.66 1011.67 1011.82 1012.08 1012.40 1012.73 1013.00 1013.18 1013.23 1013.17 1013.02 1012.84 1012.67 1012.56
1011.38 1011.37 1011.31 1011.26 1011.28 1011.42 1011.74 1012.27 1012.97 1013.82 1014.72 1015.59 1016.36 1016.94 1017.30 1017.44 1017.37 1017.14 1016.82 1016.45 1016.08 1015.71 1015.36 1015.00 1014.63 1014.23 1013.79 1013.35 1012.94 1012.58 1012.33 1012.21 1012.21 1012.33 1012.51 1012.72 1012.89 1012.99 1012.99 1012.90 1012.74 1012.55 1012.39 1012.28
1011.34 1011.27 1011.17 1011.11 1011.13 1011.31 1011.70 1012.31 1013.12 1014.08 1015.10 1016.08 1016.94 1017.60 1018.02 1018.19 1018.14 1017.94 1017.63 1017.27 1016.92 1016.58 1016.26 1015.94 1015.60 1015.23 1014.81 1014.35 1013.89 1013.47 1013.11 1012.86 1012.72 1012.68 1012.72 1012.79 1012.85 1012.86 1012.80 1012.66 1012.48 1012.28 1012.11 1011.99
1011.26 1011.17 1011.05 1010.98 1011.02 1011.24 1011.67 1012.33 1013.21 1014.23 1015.31 1016.35 1017.26 1017.95 1018.40 1018.59 1018.56 1018.37 1018.08 1017.75 1017.44 1017.15 1016.89 1016.65 1016.38 1016.07 1015.70 1015.28 1014.82 1014.36 1013.94 1013.58 1013.32 1013.15 1013.04 1012.98 1012.93 1012.84 1012.71 1012.53 1012.31 1012.08 1011.88 1011.74
1011.16 1011.06 1010.95 1010.89 1010.95 1011.18 1011.63 1012.32 1013.21 1014.25 1015.34 1016.38 1017.29 1017.99 1018.44 1018.64 1018.62 1018.44 1018.18 1017.90 1017.64 1017.42 1017.25 1017.10 1016.93 1016.71 1016.43 1016.07 1015.65 1015.19 1014.74 1014.32 1013.97 1013.69 1013.47 1013.30 1013.15 1012.98 1012.78 1012.55 1012.28 1012.02 1011.78 1011.59
1011.04 1010.96 1010.88 1010.84 1010.91 1011.14 1011.59 1012.25 1013.12 1014.12 1015.17 1016.17 1017.05 1017.72 1018.16 1018.36 1018.36 1018.21 1018.00 1017.77 1017.58 1017.44 1017.37 1017.32 1017.26 1017.15 1016.97 1016.69 1016.33 1015.91 1015.46 1015.03 1014.63 1014.29 1014.00 1013.75 1013.53 1013.30 1013.04 1012.76 1012.45 1012.13 1011.83 1011.58
1010.91 1010.88 1010.83 1010.82 1010.90 1011.13 1011.54 1012.15 1012.95 1013.86 1014.83 1015.76 1016.58 1017.21 1017.64 1017.84 1017.87 1017.78 1017.63 1017.47 1017.37 1017.32 1017.34 1017.39 1017.43 1017.43 1017.33 1017.15 1016.86 1016.50 1016.09 1015.66 1015.26 1014.90 1014.59 1014.31 1014.05 1013.78 1013.49 1013.17 1012.81 1012.44 1012.07 1011.73
1010.79 1010.83 1010.84 1010.86 1010.95 1011.15 1011.50 1012.03 1012.72 1013.52 1014.37 1015.21 1015.95 1016.54 1016.96 1017.19 1017.28 1017.26 1017.19 1017.13 1017.11 1017.16 1017.26 1017.40 1017.52 1017.59 1017.58 1017.46 1017.25 1016.95 1016.59 1016.21 1015.84 1015.50 1015.19 1014.92 1014.65 1014.38 1014.07 1013.73 1013.33 1012.90 1012.46 1012.03
1010.71 1010.83 1010.90 1010.96 1011.05 1011.21 1011.49 1011.91 1012.46 1013.12 1013.85 1014.57 1015.24 1015.79 1016.22 1016.50 1016.66 1016.74 1016.78 1016.83 1016.91 1017.04 1017.22 1017.41 1017.58 1017.70 1017.74 1017.67 1017.51 1017.27 1016.96 1016.64 1016.32 1016.02 1015.75 1015.51 1015.27 1015.01 1014.71 1014.35 1013.93 1013.46 1012.95 1012.43
1010.72 1010.91 1011.04 1011.12 1011.20 1011.31 1011.49 1011.78 1012.19 1012.70 1013.28 1013.89 1014.48 1015.02 1015.46 1015.81 1016.07 1016.27 1016.44 1016.60 1016.78 1016.99 1017.22 1017.45 1017.65 1017.78 1017.84 1017.80 1017.67 1017.47 1017.21 1016.94 1016.68 1016.44 1016.22 1016.03 1015.83 1015.60 1015.31 1014.96 1014.53 1014.02 1013.46 1012.87
1010.80 1011.06 1011.23 1011.33 1011.38 1011.42 1011.50 1011.66 1011.91 1012.26 1012.70 1013.20 1013.73 1014.24 1014.73 1015.15 1015.53 1015.86 1016.16 1016.44 1016.73 1017.01 1017.28 1017.52 1017.72 1017.85 1017.89 1017.85 1017.74 1017.56 1017.35 1017.12 1016.91 1016.72 1016.56 1016.41 1016.24 1016.05 1015.79 1015.45 1015.02 1014.50 1013.91 1013.28
1010.95 1011.25 1011.45 1011.54 1011.55 1011.52 1011.50 1011.51 1011.61 1011.81 1012.11 1012.51 1012.98 1013.49 1014.01 1014.53 1015.02 1015.49 1015.92 1016.32 1016.70 1017.04 1017.34 1017.58 1017.76 1017.87 1017.90 1017.84 1017.72 1017.56 1017.37 1017.18 1017.01 1016.86 1016.73 1016.61 1016.48 1016.31 1016.07 1015.74 1015.33 1014.82 1014.23 1013.58
1011.12 1011.43 1011.63 1011.71 1011.68 1011.57 1011.44 1011.32 1011.28 1011.34 1011.53 1011.83 1012.25 1012.76 1013.33 1013.93 1014.53 1015.12 1015.67 1016.18 1016.64 1017.03 1017.35 1017.59 1017.75 1017.83 1017.83 1017.76 1017.63 1017.47 1017.30 1017.13 1016.98 1016.85 1016.74 1016.64 1016.52 1016.35 1016.12 1015.81 1015.41 1014.92 1014.35 1013.73
1011.24 1011.55 1011.73 1011.77 1011.69 1011.51 1011.29 1011.07 1010.91 1010.86 1010.94 1011.18 1011.56 1012.07 1012.68 1013.35 1014.05 1014.74 1015.39 1015.99 1016.50 1016.93 1017.27 1017.51 1017.65 1017.71 1017.69 1017.60 1017.47 1017.32 1017.15 1017.00 1016.86 1016.73 1016.62 1016.50 1016.37 1016.19 1015.96 1015.65 1015.27 1014.80 1014.27 1013.69
1011.27 1011.54 1011.68 1011.69 1011.56 1011.33 1011.04 1010.74 1010.50 1010.37 1010.39 1010.58 1010.93 1011.45 1012.09 1012.82 1013.58 1014.35 1015.07 1015.72 1016.29 1016.74 1017.09 1017.32 1017.45 1017.50 1017.47 1017.39 1017.26 1017.12 1016.96 1016.81 1016.67 1016.54 1016.40 1016.26 1016.09 1015.88 1015.62 1015.30 1014.92 1014.49 1014.00 1013.47
1011.15 1011.37 1011.47 1011.44 1011.28 1011.00 1010.67 1010.33 1010.05 1009.89 1009.87 1010.04 1010.39 1010.92 1011.58 1012.35 1013.16 1013.97 1014.73 1015.42 1016.00 1016.47 1016.81 1017.04 1017.17 1017.22 1017.19 1017.12 1017.02 1016.89 1016.75 1016.61 1016.46 1016.31 1016.14 1015.95 1015.73 1015.47 1015.17 1014.83 1014.45 1014.03 1013.58 1013.10
1010.87 1011.03 1011.08 1011.02 1010.83 1010.55 1010.21 1009.87 1009.59 1009.43 1009.42 1009.60 1009.96 1010.51 1011.19 1011.98 1012.81 1013.63 1014.41 1015.10 1015.68 1016.14 1016.48 1016.70 1016.83 1016.88 1016.88 1016.83 1016.75 1016.65 1016.53 1016.40 1016.24 1016.07 1015.86 1015.62 1015.35 1015.03 1014.69 1014.31 1013.91 1013.49 1013.06 1012.62
1010.47 1010.55 1010.55 1010.45 1010.25 1009.98 1009.67 1009.36 1009.13 1009.01 1009.04 1009.26 1009.66 1010.22 1010.93 1011.72 1012.56 1013.38 1014.14 1014.81 1015.37 1015.81 1016.13 1016.34 1016.47 1016.52 1016.53 1016.51 1016.46 1016.39 1016.29 1016.17 1016.02 1015.83 1015.59 1015.31 1014.98 1014.61 1014.21 1013.79 1013.36 1012.93 1012.50 1012.08
1009.97 1009.97 1009.91 1009.78 1009.58 1009.34 1009.07 1008.84 1008.68 1008.63 1008.74 1009.02 1009.47 1010.07 1010.79 1011.59 1012.41 1013.21 1013.94 1014.57 1015.10 1015.50 1015.79 1015.98 1016.09 1016.15 1016.17 1016.17 1016.14 1016.10 1016.03 1015.92 1015.77 1015.57 1015.32 1015.00 1014.63 1014.22 1013.78 1013.31 1012.84 1012.39 1011.95 1011.52
1009.43 1009.34 1009.22 1009.06 1008.87 1008.66 1008.46 1008.31 1008.25 1008.31 1008.51 1008.86 1009.37 1010.01 1010.75 1011.55 1012.35 1013.11 1013.80 1014.39 1014.86 1015.21 1015.46 1015.63 1015.72 1015.77 1015.79 1015.79 1015.78 1015.76 1015.70 1015.61 1015.48 1015.28 1015.02 1014.69 1014.30 1013.86 1013.38 1012.88 1012.38 1011.89 1011.42 1010.97
1008.88 1008.70 1008.52 1008.33 1008.15 1007.99 1007.87 1007.82 1007.86 1008.03 1008.33 1008.77 1009.35 1010.02 1010.78 1011.56 1012.34 1013.06 1013.70 1014.23 1014.65 1014.95 1015.15 1015.27 1015.34 1015.37 1015.37 1015.37 1015.36 1015.34 1015.30 1015.22 1015.09 1014.91 1014.66 1014.33 1013.95 1013.50 1013.01 1012.49 1011.96 1011.43 1010.91 1010.42
1008.36 1008.09 1007.85 1007.64 1007.48 1007.37 1007.32 1007.37 1007.53 1007.80 1008.20 1008.72 1009.35 1010.06 1010.82 1011.59 1012.33 1013.01 1013.59 1014.07 1014.43 1014.68 1014.83 1014.91 1014.94 1014.93 1014.91 1014.89 1014.86 1014.83 1014.79 1014.72 1014.60 1014.43 1014.20 1013.90 1013.53 1013.10 1012.61 1012.09 1011.54 1010.98 1010.42 1009.88
Thickness
5728 5723 5719 5727 5735 5740 5742 5739 5732 5739 5753 5751 5743 5740 5747 5758 5759 5757 5757 5760 5759 5760 5765 5766 5764 5764 5763 5761 5759 5755 5753 5751 5747 5742 5739 5735 5733 5733 5733 5731 5728 5725 5722 5720
5719 5718 5733 5743 5745 5745 5743 5735 5734 5743 5757 5751 5743 5741 5747 5753 5754 5755 5755 5757 5758 5759 5759 5759 5760 5760 5759 5757 5756 5755 5752 5750 5746 5741 5739 5736 5733 5732 5731 5730 5727 5724 5721 5718
5717 5728 5744 5742 5739 5737 5737 5735 5737 5742 5751 5752 5743 5730 5738 5747 5752 5753 5755 5755 5757 5757 5756 5755 5756 5755 5755 5754 5753 5753 5751 5749 5745 5742 5739 5735 5732 5730 5728 5726 5724 5723 5720 5717
5723 5738 5743 5740 5740 5740 5733 5750 5751 5748 5738 5730 5737 5706 5724 5738 5740 5743 5746 5749 5750 5753 5754 5753 5752 5752 5752 5752 5753 5753 5750 5748 5745 5742 5736 5731 5726 5723 5724 5724 5723 5722 5720 5717
5725 5738 5739 5737 5743 5748 5746 5758 5753 5750 5741 5734 5737 5719 5716 5732 5727 5733 5741 5745 5747 5749 5750 5749 5749 5749 5750 5751 5750 5749 5748 5745 5743 5739 5735 5730 5726 5725 5724 5723 5721 5719 5718 5716
5740 5751 5750 5748 5755 5757 5756 5754 5751 5748 5738 5718 5733 5724 5708 5724 5727 5733 5739 5742 5744 5745 5745 5745 5746 5746 5746 5746 5745 5745 5743 5740 5739 5736 5733 5730 5726 5724 5721 5719 5717 5716 5716 5715
5732 5742 5753 5758 5748 5752 5752 5736 5718 5711 5709 5713 5740 5725 5712 5729 5736 5736 5736 5737 5740 5741 5740 5739 5739 5739 5740 5740 5740 5739 5738 5736 5735 5734 5732 5730 5727 5724 5721 5718 5716 5714 5713 5712
5722 5722 5744 5752 5747 5743 5745 5734 5712 5703 5707 5720 5736 5718 5718 5737 5740 5741 5738 5737 5737 5736 5736 5735 5736 5735 5735 5735 5735 5735 5734 5733 5732 5731 5730 5730 5728 5724 5722 5720 5717 5715 5712 5711
5730 5728 5751 5756 5760 5755 5741 5733 5743 5732 5729 5722 5722 5717 5723 5735 5734 5734 5733 5732 5731 5732 5732 5732 5732 5733 5732 5732 5732 5732 5731 5729 5729 5728 5728 5727 5725 5723 5720 5719 5717 5715 5713 5712
5747 5733 5746 5756 5760 5760 5758 5754 5747 5735 5720 5714 5715 5714 5713 5719 5723 5727 5727 5725 5727 5728 5729 5728 5728 5729 5729 5729 5729 5729 5728 5726 5726 5725 5724 5724 5722 5720 5718 5715 5713 5712 5711 5709
5757 5740 5740 5748 5745 5746 5751 5749 5746 5741 5738 5722 5709 5709 5736 5728 5728 5725 5725 5724 5723 5724 5724 5724 5724 5725 5726 5726 5726 5725 5724 5723 5722 5721 5720 5719 5717 5716 5714 5711 5709 5708 5707 5707
5761 5750 5738 5746 5762 5766 5758 5752 5746 5729 5732 5737 5721 5707 5740 5734 5731 5728 5724 5723 5723 5723 5722 5721 5720 5720 5720 5720 5720 5720 5719 5718 5717 5716 5715 5713 5712 5710 5708 5706 5705 5704 5703 5703
5756 5748 5732 5732 5742 5755 5753 5755 5754 5749 5742 5734 5720 5709 5736 5733 5728 5726 5722 5720 5719 5719 5718 5717 5716 5715 5715 5715 5714 5714 5714 5712 5712 5710 5708 5706 5705 5703 5701 5700 5699 5698 5697 5697
5755 5750 5740 5727 5735 5749 5747 5749 5752 5747 5734 5731 5728 5716 5723 5724 5721 5720 5719 5718 5716 5715 5713 5712 5710 5710 5710 5710 5709 5708 5708 5707 5706 5704 5701 5699 5697 5696 5695 5694 5693 5692 5691 5690
5759 5747 5751 5753 5756 5754 5749 5748 5748 5744 5744 5734 5731 5725 5725 5725 5722 5720 5718 5715 5713 5710 5709 5707 5706 5705 5705 5704 5704 5702 5701 5701 5700 5697 5693 5691 5690 5689 5688 5686 5685 5685 5684 5684
5759 5748 5750 5748 5754 5751 5744 5746 5746 5744 5744 5739 5734 5728 5736 5733 5726 5719 5716 5712 5708 5705 5704 5704 5703 5701 5700 5699 5698 5697 5695 5694 5693 5689 5686 5684 5682 5680 5678 5677 5677 5676 5676 5676
5754 5747 5740 5737 5749 5744 5733 5746 5745 5743 5746 5740 5729 5731 5733 5726 5721 5717 5714 5709 5705 5702 5700 5698 5697 5696 5695 5695 5693 5690 5689 5688 5685 5681 5678 5676 5673 5671 5669 5668 5667 5666 5666 5667
5747 5745 5740 5736 5735 5717 5739 5759 5757 5747 5745 5746 5740 5736 5732 5726 5722 5719 5715 5707 5702 5699 5696 5694 5692 5691 5691 5690 5687 5685 5683 5680 5676 5672 5669 5667 5665 5663 5661 5659 5657 5657 5657 5657
5752 5740 5732 5731 5725 5728 5738 5749 5748 5738 5734 5745 5738 5733 5729 5725 5716 5711 5712 5707 5700 5696 5692 5689 5688 5686 5684 5681 5680 5677 5674 5670 5666 5662 5660 5658 5656 5654 5652 5650 5649 5648 5647 5647
5745 5741 5729 5727 5718 5716 5736 5749 5754 5741 5723 5742 5739 5729 5723 5715 5698 5699 5706 5702 5696 5691 5687 5683 5681 5678 5675 5673 5671 5667 5664 5660 5656 5653 5651 5649 5648 5645 5643 5642 5640 5639 5638 5637
5726 5726 5721 5718 5717 5728 5739 5747 5743 5715 5720 5739 5736 5728 5720 5710 5705 5704 5702 5695 5689 5684 5680 5677 5673 5669 5666 5665 5662 5657 5653 5649 5648 5645 5643 5640 5639 5637 5636 5633 5631 5628 5627 5626
5730 5725 5722 5720 5713 5716 5736 5734 5726 5725 5735 5733 5728 5724 5715 5708 5703 5699 5692 5686 5681 5676 5672 5669 5665 5661 5659 5657 5653 5648 5643 5642 5640 5637 5634 5631 5629 5628 5627 5622 5619 5616 5613 5612
5734 5734 5729 5726 5719 5729 5735 5732 5733 5733 5727 5724 5720 5715 5709 5700 5693 5688 5683 5678 5673 5669 5665 5661 5657 5653 5651 5648 5644 5638 5635 5633 5630 5627 5624 5622 5620 5617 5615 5611 5606 5603 5600 5597
5735 5737 5726 5720 5720 5725 5727 5727 5726 5724 5719 5716 5712 5707 5700 5692 5686 5680 5674 5669 5665 5661 5657 5653 5649 5644 5641 5639 5635 5631 5628 5624 5621 5617 5614 5612 5609 5606 5603 5598 5595 5591 5587 5585
5720 5721 5715 5712 5714 5714 5715 5716 5715 5713 5710 5705 5701 5697 5691 5684 5678 5672 5666 5661 5657 5652 5648 5644 5639 5635 5632 5630 5627 5623 5619 5615 5610 5607 5604 5601 5597 5593 5590 5587 5584 5581 5578 5574
5715 5710 5703 5701 5708 5705 5703 5707 5707 5700 5696 5693 5689 5684 5681 5675 5669 5664 5658 5653 5648 5644 5640 5635 5631 5626 5623 5620 5617 5613 5610 5605 5600 5595 5592 5588 5585 5581 5578 5575 5574 5573 5569 5567